Location: *
(45.4590°N, 16.3650°E)
Time: 21:57:43
(UTC+00:00)

USA 116 - Pass Details

Date: 17 January 2020
Orbit: 405 x 834 km, 97.9° (Epoch: 18 November)

Event Time Altitude Azimuth Distance (km) Brightness Sun altitude
Exits shadow 17:25:23 53° 49° (NE) 541 3.3 -18.2°
Maximum altitude 17:25:55 66° 101° (E) 477 3.1 -18.3°
Drops below altitude 10° 17:29:03 10° 185° (S) 1,486 6.1 -18.8°
Sets 17:30:58 0° 188° (S) 2,325 7.2 -19.1°
